Year,Month,Day,Hour,Minute,Value (Times are PST for temperature in C)
2009,08,24,00,00,12.00
2009,08,24,00,01,12.00
2009,08,24,00,02,12.00
2009,08,24,00,03,12.00
2009,08,24,00,04,11.90
2009,08,24,00,05,11.90
2009,08,24,00,06,11.90
2009,08,24,00,07,11.90
2009,08,24,00,08,11.90
2009,08,24,00,09,11.90
2009,08,24,00,10,11.80
2009,08,24,00,11,11.80
2009,08,24,00,12,11.80
2009,08,24,00,13,11.80
2009,08,24,00,14,11.80
2009,08,24,00,15,11.80
2009,08,24,00,16,11.80
2009,08,24,00,17,11.80
2009,08,24,00,18,11.80
2009,08,24,00,19,11.80
2009,08,24,00,20,11.70
2009,08,24,00,21,11.70
2009,08,24,00,22,11.70
2009,08,24,00,23,11.70
2009,08,24,00,24,11.70
2009,08,24,00,25,11.60
2009,08,24,00,26,11.60
2009,08,24,00,27,11.60
2009,08,24,00,28,11.60
2009,08,24,00,29,11.60
2009,08,24,00,30,11.60
2009,08,24,00,31,11.60
2009,08,24,00,32,11.60
2009,08,24,00,33,11.60
2009,08,24,00,34,11.60
2009,08,24,00,35,11.60
2009,08,24,00,36,11.60
2009,08,24,00,37,11.60
2009,08,24,00,38,11.60
2009,08,24,00,39,11.50
2009,08,24,00,40,11.40
2009,08,24,00,41,11.40
2009,08,24,00,42,11.40
2009,08,24,00,43,11.40
2009,08,24,00,44,11.40
2009,08,24,00,45,11.40
2009,08,24,00,46,11.40
2009,08,24,00,47,11.40
2009,08,24,00,48,11.40
2009,08,24,00,49,11.40
2009,08,24,00,50,11.40
2009,08,24,00,51,11.40
2009,08,24,00,52,11.40
2009,08,24,00,53,11.30
2009,08,24,00,54,11.30
2009,08,24,00,55,11.30
2009,08,24,00,56,11.30
2009,08,24,00,57,11.20
2009,08,24,00,58,11.20
2009,08,24,00,59,11.20
2009,08,24,01,00,11.20
2009,08,24,01,01,11.10
2009,08,24,01,02,11.10
2009,08,24,01,03,11.10
2009,08,24,01,04,11.10
2009,08,24,01,05,11.10
2009,08,24,01,06,11.10
2009,08,24,01,07,11.10
2009,08,24,01,08,11.10
2009,08,24,01,09,10.90
2009,08,24,01,10,10.90
2009,08,24,01,11,10.90
2009,08,24,01,12,10.90
2009,08,24,01,13,10.90
2009,08,24,01,14,10.90
2009,08,24,01,15,10.90
2009,08,24,01,16,10.80
2009,08,24,01,17,10.80
2009,08,24,01,18,10.80
2009,08,24,01,19,10.80
2009,08,24,01,20,10.80
2009,08,24,01,21,10.70
2009,08,24,01,22,10.70
2009,08,24,01,23,10.70
2009,08,24,01,24,10.70
2009,08,24,01,25,10.60
2009,08,24,01,26,10.60
2009,08,24,01,27,10.60
2009,08,24,01,28,10.60
2009,08,24,01,29,10.60
2009,08,24,01,30,10.60
2009,08,24,01,31,10.60
2009,08,24,01,32,10.60
2009,08,24,01,33,10.50
2009,08,24,01,34,10.40
2009,08,24,01,35,10.40
2009,08,24,01,36,10.40
2009,08,24,01,37,10.40
2009,08,24,01,38,10.40
2009,08,24,01,39,10.40
2009,08,24,01,40,10.40
2009,08,24,01,41,10.40
2009,08,24,01,42,10.40
2009,08,24,01,43,10.40
2009,08,24,01,44,10.40
2009,08,24,01,45,10.40
2009,08,24,01,46,10.40
2009,08,24,01,47,10.40
2009,08,24,01,48,10.40
2009,08,24,01,49,10.40
2009,08,24,01,50,10.40
2009,08,24,01,51,10.40
2009,08,24,01,52,10.40
2009,08,24,01,53,10.40
2009,08,24,01,54,10.40
2009,08,24,01,55,10.40
2009,08,24,01,56,10.40
2009,08,24,01,57,10.40
2009,08,24,01,58,10.40
2009,08,24,01,59,10.40
2009,08,24,02,00,10.40
2009,08,24,02,01,10.40
2009,08,24,02,02,10.40
2009,08,24,02,03,10.40
2009,08,24,02,04,10.30
2009,08,24,02,05,10.30
2009,08,24,02,06,10.30
2009,08,24,02,07,10.30
2009,08,24,02,08,10.30
2009,08,24,02,09,10.30
2009,08,24,02,10,10.30
2009,08,24,02,11,10.30
2009,08,24,02,12,10.30
2009,08,24,02,13,10.30
2009,08,24,02,14,10.30
2009,08,24,02,15,10.30
2009,08,24,02,16,10.30
2009,08,24,02,17,10.30
2009,08,24,02,18,10.30
2009,08,24,02,19,10.30
2009,08,24,02,20,10.20
2009,08,24,02,21,10.20
2009,08,24,02,22,10.20
2009,08,24,02,23,10.20
2009,08,24,02,24,10.10
2009,08,24,02,25,10.10
2009,08,24,02,26,10.10
2009,08,24,02,27,10.10
2009,08,24,02,28,10.10
2009,08,24,02,29,10.10
2009,08,24,02,30,10.10
2009,08,24,02,31,10.10
2009,08,24,02,32,10.10
2009,08,24,02,33,10.10
2009,08,24,02,34,10.10
2009,08,24,02,35,10.10
2009,08,24,02,36,10.10
2009,08,24,02,37,10.10
2009,08,24,02,38,10.10
2009,08,24,02,39,10.10
2009,08,24,02,40,10.10
2009,08,24,02,41,10.10
2009,08,24,02,42,10.10
2009,08,24,02,43,10.10
2009,08,24,02,44,10.10
2009,08,24,02,45,10.10
2009,08,24,02,46,10.10
2009,08,24,02,47,10.00
2009,08,24,02,48,9.90
2009,08,24,02,49,9.90
2009,08,24,02,50,9.90
2009,08,24,02,51,9.90
2009,08,24,02,52,9.90
2009,08,24,02,53,9.90
2009,08,24,02,54,9.90
2009,08,24,02,55,9.90
2009,08,24,02,56,9.90
2009,08,24,02,57,9.90
2009,08,24,02,58,9.90
2009,08,24,02,59,9.90
2009,08,24,03,00,9.90
2009,08,24,03,01,9.90
2009,08,24,03,02,9.90
2009,08,24,03,03,9.90
2009,08,24,03,04,9.90
2009,08,24,03,05,9.90
2009,08,24,03,06,9.90
2009,08,24,03,07,9.90
2009,08,24,03,08,9.90
2009,08,24,03,09,9.90
2009,08,24,03,10,9.90
2009,08,24,03,11,9.90
2009,08,24,03,12,9.90
2009,08,24,03,13,9.90
2009,08,24,03,14,9.90
2009,08,24,03,15,9.90
2009,08,24,03,16,9.90
2009,08,24,03,17,9.80
2009,08,24,03,18,9.80
2009,08,24,03,19,9.80
2009,08,24,03,20,9.80
2009,08,24,03,21,9.80
2009,08,24,03,22,9.80
2009,08,24,03,23,9.80
2009,08,24,03,24,9.80
2009,08,24,03,25,9.80
2009,08,24,03,26,9.80
2009,08,24,03,27,9.80
2009,08,24,03,28,9.80
2009,08,24,03,29,9.80
2009,08,24,03,30,9.80
2009,08,24,03,31,9.80
2009,08,24,03,32,9.80
2009,08,24,03,33,9.70
2009,08,24,03,34,9.70
2009,08,24,03,35,9.70
2009,08,24,03,36,9.70
2009,08,24,03,37,9.70
2009,08,24,03,38,9.70
2009,08,24,03,39,9.70
2009,08,24,03,40,9.70
2009,08,24,03,41,9.70
2009,08,24,03,42,9.60
2009,08,24,03,43,9.60
2009,08,24,03,44,9.50
2009,08,24,03,45,9.50
2009,08,24,03,46,9.50
2009,08,24,03,47,9.50
2009,08,24,03,48,9.50
2009,08,24,03,49,9.40
2009,08,24,03,50,9.40
2009,08,24,03,51,9.40
2009,08,24,03,52,9.30
2009,08,24,03,53,9.30
2009,08,24,03,54,9.30
2009,08,24,03,55,9.20
2009,08,24,03,56,9.20
2009,08,24,03,57,9.20
2009,08,24,03,58,9.20
2009,08,24,03,59,9.20
2009,08,24,04,00,9.20
2009,08,24,04,01,9.20
2009,08,24,04,02,9.20
2009,08,24,04,03,9.20
2009,08,24,04,04,9.20
2009,08,24,04,05,9.20
2009,08,24,04,06,9.20
2009,08,24,04,07,9.20
2009,08,24,04,08,9.20
2009,08,24,04,09,9.20
2009,08,24,04,10,9.20
2009,08,24,04,11,9.20
2009,08,24,04,12,9.20
2009,08,24,04,13,9.20
2009,08,24,04,14,9.20
2009,08,24,04,15,9.20
2009,08,24,04,16,9.20
2009,08,24,04,17,9.20
2009,08,24,04,18,9.20
2009,08,24,04,19,9.20
2009,08,24,04,20,9.20
2009,08,24,04,21,9.20
2009,08,24,04,22,9.20
2009,08,24,04,23,9.20
2009,08,24,04,24,9.20
2009,08,24,04,25,9.10
2009,08,24,04,26,9.10
2009,08,24,04,27,9.10
2009,08,24,04,28,9.10
2009,08,24,04,29,9.10
2009,08,24,04,30,9.10
2009,08,24,04,31,9.00
2009,08,24,04,32,9.00
2009,08,24,04,33,9.00
2009,08,24,04,34,9.00
2009,08,24,04,35,9.00
2009,08,24,04,36,9.00
2009,08,24,04,37,9.00
2009,08,24,04,38,9.00
2009,08,24,04,39,9.00
2009,08,24,04,40,9.00
2009,08,24,04,41,9.00
2009,08,24,04,42,9.00
2009,08,24,04,43,9.00
2009,08,24,04,44,9.00
2009,08,24,04,45,9.00
2009,08,24,04,46,9.00
2009,08,24,04,47,8.90
2009,08,24,04,48,8.90
2009,08,24,04,49,8.90
2009,08,24,04,50,8.90
2009,08,24,04,51,8.80
2009,08,24,04,52,8.80
2009,08,24,04,53,8.80
2009,08,24,04,54,8.70
2009,08,24,04,55,8.70
2009,08,24,04,56,8.70
2009,08,24,04,57,8.70
2009,08,24,04,58,8.70
2009,08,24,04,59,8.70
2009,08,24,05,00,8.70
2009,08,24,05,01,8.70
2009,08,24,05,02,8.70
2009,08,24,05,03,8.70
2009,08,24,05,04,8.70
2009,08,24,05,05,8.70
2009,08,24,05,06,8.70
2009,08,24,05,07,8.70
2009,08,24,05,08,8.70
2009,08,24,05,09,8.70
2009,08,24,05,10,8.70
2009,08,24,05,11,8.70
2009,08,24,05,12,8.70
2009,08,24,05,13,8.70
2009,08,24,05,14,8.70
2009,08,24,05,15,8.70
2009,08,24,05,16,8.70
2009,08,24,05,17,8.70
2009,08,24,05,18,8.70
2009,08,24,05,19,8.70
2009,08,24,05,20,8.70
2009,08,24,05,21,8.70
2009,08,24,05,22,8.70
2009,08,24,05,23,8.70
2009,08,24,05,24,8.60
2009,08,24,05,25,8.60
2009,08,24,05,26,8.60
2009,08,24,05,27,8.60
2009,08,24,05,28,8.60
2009,08,24,05,29,8.60
2009,08,24,05,30,8.50
2009,08,24,05,31,8.50
2009,08,24,05,32,8.50
2009,08,24,05,33,8.50
2009,08,24,05,34,8.50
2009,08,24,05,35,8.40
2009,08,24,05,36,8.40
2009,08,24,05,37,8.40
2009,08,24,05,38,8.40
2009,08,24,05,39,8.40
2009,08,24,05,40,8.40
2009,08,24,05,41,8.40
2009,08,24,05,42,8.40
2009,08,24,05,43,8.40
2009,08,24,05,44,8.40
2009,08,24,05,45,8.40
2009,08,24,05,46,8.50
2009,08,24,05,47,8.50
2009,08,24,05,48,8.50
2009,08,24,05,49,8.50
2009,08,24,05,50,8.50
2009,08,24,05,51,8.50
2009,08,24,05,52,8.50
2009,08,24,05,53,8.50
2009,08,24,05,54,8.50
2009,08,24,05,55,8.50
2009,08,24,05,56,8.40
2009,08,24,05,57,8.40
2009,08,24,05,58,8.40
2009,08,24,05,59,8.40
2009,08,24,06,00,8.50
2009,08,24,06,01,8.50
2009,08,24,06,02,8.50
2009,08,24,06,03,8.50
2009,08,24,06,04,8.50
2009,08,24,06,05,8.50
2009,08,24,06,06,8.50
2009,08,24,06,07,8.50
2009,08,24,06,08,8.50
2009,08,24,06,09,8.50
2009,08,24,06,10,8.50
2009,08,24,06,11,8.50
2009,08,24,06,12,8.40
2009,08,24,06,13,8.40
2009,08,24,06,14,8.40
2009,08,24,06,15,8.40
2009,08,24,06,16,8.40
2009,08,24,06,17,8.40
2009,08,24,06,18,8.40
2009,08,24,06,19,8.30
2009,08,24,06,20,8.30
2009,08,24,06,21,8.30
2009,08,24,06,22,8.30
2009,08,24,06,23,8.30
2009,08,24,06,24,8.30
2009,08,24,06,25,8.30
2009,08,24,06,26,8.30
2009,08,24,06,27,8.30
2009,08,24,06,28,8.30
2009,08,24,06,29,8.30
2009,08,24,06,30,8.30
2009,08,24,06,31,8.30
2009,08,24,06,32,8.20
2009,08,24,06,33,8.20
2009,08,24,06,34,8.20
2009,08,24,06,35,8.20
2009,08,24,06,36,8.20
2009,08,24,06,37,8.20
2009,08,24,06,38,8.20
2009,08,24,06,39,8.20
2009,08,24,06,40,8.20
2009,08,24,06,41,8.20
2009,08,24,06,42,8.20
2009,08,24,06,43,8.20
2009,08,24,06,44,8.20
2009,08,24,06,45,8.20
2009,08,24,06,46,8.20
2009,08,24,06,47,8.20
2009,08,24,06,48,8.20
2009,08,24,06,49,8.30
2009,08,24,06,50,8.30
2009,08,24,06,51,8.30
2009,08,24,06,52,8.40
2009,08,24,06,53,8.40
2009,08,24,06,54,8.50
2009,08,24,06,55,8.50
2009,08,24,06,56,8.60
2009,08,24,06,57,8.60
2009,08,24,06,58,8.70
2009,08,24,06,59,8.70
2009,08,24,07,00,8.70
2009,08,24,07,01,8.70
2009,08,24,07,02,8.80
2009,08,24,07,03,8.80
2009,08,24,07,04,8.90
2009,08,24,07,05,8.90
2009,08,24,07,06,9.00
2009,08,24,07,07,9.00
2009,08,24,07,08,9.10
2009,08,24,07,09,9.20
2009,08,24,07,10,9.30
2009,08,24,07,11,9.40
2009,08,24,07,12,9.50
2009,08,24,07,13,9.50
2009,08,24,07,14,9.60
2009,08,24,07,15,9.70
2009,08,24,07,16,9.70
2009,08,24,07,17,9.80
2009,08,24,07,18,9.80
2009,08,24,07,19,9.90
2009,08,24,07,20,9.90
2009,08,24,07,21,10.00
2009,08,24,07,22,10.10
2009,08,24,07,23,10.20
2009,08,24,07,24,10.30
2009,08,24,07,25,10.40
2009,08,24,07,26,10.50
2009,08,24,07,27,10.60
2009,08,24,07,28,10.60
2009,08,24,07,29,10.70
2009,08,24,07,30,10.80
2009,08,24,07,31,10.90
2009,08,24,07,32,10.90
2009,08,24,07,33,10.90
2009,08,24,07,34,11.10
2009,08,24,07,35,11.10
2009,08,24,07,36,11.20
2009,08,24,07,37,11.30
2009,08,24,07,38,11.30
2009,08,24,07,39,11.40
2009,08,24,07,40,11.50
2009,08,24,07,41,11.60
2009,08,24,07,42,11.70
2009,08,24,07,43,11.80
2009,08,24,07,44,11.80
2009,08,24,07,45,11.90
2009,08,24,07,46,12.00
2009,08,24,07,47,12.10
2009,08,24,07,48,12.10
2009,08,24,07,49,12.20
2009,08,24,07,50,12.30
2009,08,24,07,51,12.40
2009,08,24,07,52,12.50
2009,08,24,07,53,12.60
2009,08,24,07,54,12.60
2009,08,24,07,55,12.70
2009,08,24,07,56,12.80
2009,08,24,07,57,12.90
2009,08,24,07,58,13.00
2009,08,24,07,59,13.00
2009,08,24,08,00,13.10
2009,08,24,08,01,13.20
2009,08,24,08,02,13.20
2009,08,24,08,03,13.30
2009,08,24,08,04,13.30
2009,08,24,08,05,13.30
2009,08,24,08,06,13.30
2009,08,24,08,07,13.30
2009,08,24,08,08,13.30
2009,08,24,08,09,13.30
2009,08,24,08,10,13.40
2009,08,24,08,11,13.40
2009,08,24,08,12,13.50
2009,08,24,08,13,13.50
2009,08,24,08,14,13.60
2009,08,24,08,15,13.60
2009,08,24,08,16,13.70
2009,08,24,08,17,13.70
2009,08,24,08,18,13.70
2009,08,24,08,19,13.80
2009,08,24,08,20,13.90
2009,08,24,08,21,13.90
2009,08,24,08,22,14.00
2009,08,24,08,23,14.10
2009,08,24,08,24,14.20
2009,08,24,08,25,14.20
2009,08,24,08,26,14.20
2009,08,24,08,27,14.20
2009,08,24,08,28,14.30
2009,08,24,08,29,14.30
2009,08,24,08,30,14.40
2009,08,24,08,31,14.40
2009,08,24,08,32,14.50
2009,08,24,08,33,14.50
2009,08,24,08,34,14.50
2009,08,24,08,35,14.50
2009,08,24,08,36,14.50
2009,08,24,08,37,14.60
2009,08,24,08,38,14.60
2009,08,24,08,39,14.60
2009,08,24,08,40,14.70
2009,08,24,08,41,14.70
2009,08,24,08,42,14.70
2009,08,24,08,43,14.70
2009,08,24,08,44,14.80
2009,08,24,08,45,14.80
2009,08,24,08,46,14.80
2009,08,24,08,47,14.90
2009,08,24,08,48,14.90
2009,08,24,08,49,14.90
2009,08,24,08,50,15.00
2009,08,24,08,51,15.00
2009,08,24,08,52,15.00
2009,08,24,08,53,15.10
2009,08,24,08,54,15.10
2009,08,24,08,55,15.20
2009,08,24,08,56,15.20
2009,08,24,08,57,15.30
2009,08,24,08,58,15.20
2009,08,24,08,59,15.20
2009,08,24,09,00,15.20
2009,08,24,09,01,15.20
2009,08,24,09,02,15.20
2009,08,24,09,03,15.30
2009,08,24,09,04,15.30
2009,08,24,09,05,15.30
2009,08,24,09,06,15.40
2009,08,24,09,07,15.40
2009,08,24,09,08,15.50
2009,08,24,09,09,15.60
2009,08,24,09,10,15.60
2009,08,24,09,11,15.60
2009,08,24,09,12,15.60
2009,08,24,09,13,15.60
2009,08,24,09,14,15.60
2009,08,24,09,15,15.60
2009,08,24,09,16,15.60
2009,08,24,09,17,15.60
2009,08,24,09,18,15.70
2009,08,24,09,19,15.70
2009,08,24,09,20,15.70
2009,08,24,09,21,15.80
2009,08,24,09,22,15.80
2009,08,24,09,23,15.80
2009,08,24,09,24,15.90
2009,08,24,09,25,15.90
2009,08,24,09,26,16.00
2009,08,24,09,27,16.00
2009,08,24,09,28,15.90
2009,08,24,09,29,15.90
2009,08,24,09,30,15.90
2009,08,24,09,31,15.80
2009,08,24,09,32,15.80
2009,08,24,09,33,15.70
2009,08,24,09,34,15.70
2009,08,24,09,35,15.70
2009,08,24,09,36,15.70
2009,08,24,09,37,15.70
2009,08,24,09,38,15.70
2009,08,24,09,39,15.80
2009,08,24,09,40,15.90
2009,08,24,09,41,16.00
2009,08,24,09,42,16.20
2009,08,24,09,43,16.20
2009,08,24,09,44,16.30
2009,08,24,09,45,16.40
2009,08,24,09,46,16.40
2009,08,24,09,47,16.50
2009,08,24,09,48,16.60
2009,08,24,09,49,16.70
2009,08,24,09,50,16.70
2009,08,24,09,51,16.70
2009,08,24,09,52,16.70
2009,08,24,09,53,16.70
2009,08,24,09,54,16.70
2009,08,24,09,55,16.80
2009,08,24,09,56,16.80
2009,08,24,09,57,16.80
2009,08,24,09,58,16.90
2009,08,24,09,59,16.90
2009,08,24,10,00,16.90
2009,08,24,10,01,16.90
2009,08,24,10,02,16.90
2009,08,24,10,03,16.90
2009,08,24,10,04,16.90
2009,08,24,10,05,16.90
2009,08,24,10,06,16.90
2009,08,24,10,07,17.00
2009,08,24,10,08,17.00
2009,08,24,10,09,17.10
2009,08,24,10,10,17.10
2009,08,24,10,11,17.10
2009,08,24,10,12,17.00
2009,08,24,10,13,17.00
2009,08,24,10,14,16.90
2009,08,24,10,15,16.90
2009,08,24,10,16,16.90
2009,08,24,10,17,16.80
2009,08,24,10,18,16.80
2009,08,24,10,19,16.80
2009,08,24,10,20,16.80
2009,08,24,10,21,16.90
2009,08,24,10,22,17.00
2009,08,24,10,23,17.10
2009,08,24,10,24,17.20
2009,08,24,10,25,17.30
2009,08,24,10,26,17.30
2009,08,24,10,27,17.30
2009,08,24,10,28,17.30
2009,08,24,10,29,17.30
2009,08,24,10,30,17.30
2009,08,24,10,31,17.30
2009,08,24,10,32,17.30
2009,08,24,10,33,17.20
2009,08,24,10,34,17.20
2009,08,24,10,35,17.00
2009,08,24,10,36,17.00
2009,08,24,10,37,16.90
2009,08,24,10,38,16.90
2009,08,24,10,39,16.90
2009,08,24,10,40,16.90
2009,08,24,10,41,16.80
2009,08,24,10,42,16.80
2009,08,24,10,43,16.80
2009,08,24,10,44,16.70
2009,08,24,10,45,16.50
2009,08,24,10,46,16.40
2009,08,24,10,47,16.30
2009,08,24,10,48,16.20
2009,08,24,10,49,16.20
2009,08,24,10,50,16.20
2009,08,24,10,51,16.20
2009,08,24,10,52,16.20
2009,08,24,10,53,16.20
2009,08,24,10,54,16.20
2009,08,24,10,55,16.30
2009,08,24,10,56,16.30
2009,08,24,10,57,16.30
2009,08,24,10,58,16.30
2009,08,24,10,59,16.30
2009,08,24,11,00,16.40
2009,08,24,11,01,16.30
2009,08,24,11,02,16.40
2009,08,24,11,03,16.30
2009,08,24,11,04,16.30
2009,08,24,11,05,16.20
2009,08,24,11,06,16.20
2009,08,24,11,07,16.20
2009,08,24,11,08,16.20
2009,08,24,11,09,16.20
2009,08,24,11,10,16.20
2009,08,24,11,11,16.20
2009,08,24,11,12,16.20
2009,08,24,11,13,16.20
2009,08,24,11,14,16.20
2009,08,24,11,15,16.10
2009,08,24,11,16,16.10
2009,08,24,11,17,16.10
2009,08,24,11,18,16.10
2009,08,24,11,19,16.10
2009,08,24,11,20,16.20
2009,08,24,11,21,16.30
2009,08,24,11,22,16.30
2009,08,24,11,23,16.30
2009,08,24,11,24,16.40
2009,08,24,11,25,16.50
2009,08,24,11,26,16.60
2009,08,24,11,27,16.70
2009,08,24,11,28,16.70
2009,08,24,11,29,16.70
2009,08,24,11,30,16.70
2009,08,24,11,31,16.70
2009,08,24,11,32,16.70
2009,08,24,11,33,16.70
2009,08,24,11,34,16.70
2009,08,24,11,35,16.70
2009,08,24,11,36,16.70
2009,08,24,11,37,16.70
2009,08,24,11,38,16.90
2009,08,24,11,39,17.00
2009,08,24,11,40,17.10
2009,08,24,11,41,17.20
2009,08,24,11,42,17.30
2009,08,24,11,43,17.30
2009,08,24,11,44,17.30
2009,08,24,11,45,17.10
2009,08,24,11,46,17.10
2009,08,24,11,47,17.20
2009,08,24,11,48,17.20
2009,08,24,11,49,17.30
2009,08,24,11,50,17.30
2009,08,24,11,51,17.40
2009,08,24,11,52,17.50
2009,08,24,11,53,17.50
2009,08,24,11,54,17.50
2009,08,24,11,55,17.50
2009,08,24,11,56,17.60
2009,08,24,11,57,17.60
2009,08,24,11,58,17.60
2009,08,24,11,59,17.60
2009,08,24,12,00,17.60
2009,08,24,12,01,17.50
2009,08,24,12,02,17.50
2009,08,24,12,03,17.40
2009,08,24,12,04,17.30
2009,08,24,12,05,17.30
2009,08,24,12,06,17.30
2009,08,24,12,07,17.20
2009,08,24,12,08,17.10
2009,08,24,12,09,17.10
2009,08,24,12,10,17.10
2009,08,24,12,11,17.10
2009,08,24,12,12,17.10
2009,08,24,12,13,17.10
2009,08,24,12,14,17.20
2009,08,24,12,15,17.20
2009,08,24,12,16,17.20
2009,08,24,12,17,17.20
2009,08,24,12,18,17.30
2009,08,24,12,19,17.30
2009,08,24,12,20,17.20
2009,08,24,12,21,17.10
2009,08,24,12,22,17.00
2009,08,24,12,23,17.00
2009,08,24,12,24,16.90
2009,08,24,12,25,16.90
2009,08,24,12,26,16.90
2009,08,24,12,27,16.80
2009,08,24,12,28,16.90
2009,08,24,12,29,17.00
2009,08,24,12,30,17.10
2009,08,24,12,31,17.00
2009,08,24,12,32,16.90
2009,08,24,12,33,16.90
2009,08,24,12,34,16.90
2009,08,24,12,35,16.90
2009,08,24,12,36,16.90
2009,08,24,12,37,16.90
2009,08,24,12,38,16.90
2009,08,24,12,39,16.90
2009,08,24,12,40,16.90
2009,08,24,12,41,17.00
2009,08,24,12,42,17.10
2009,08,24,12,43,17.10
2009,08,24,12,44,17.00
2009,08,24,12,45,16.70
2009,08,24,12,46,16.40
2009,08,24,12,47,16.20
2009,08,24,12,48,16.10
2009,08,24,12,49,16.10
2009,08,24,12,50,16.00
2009,08,24,12,51,15.90
2009,08,24,12,52,15.90
2009,08,24,12,53,15.80
2009,08,24,12,54,15.70
2009,08,24,12,55,15.60
2009,08,24,12,56,15.50
2009,08,24,12,57,15.40
2009,08,24,12,58,15.20
2009,08,24,12,59,15.10
2009,08,24,13,00,15.00
2009,08,24,13,01,15.10
2009,08,24,13,02,15.10
2009,08,24,13,03,15.30
2009,08,24,13,04,15.30
2009,08,24,13,05,15.40
2009,08,24,13,06,15.50
2009,08,24,13,07,15.50
2009,08,24,13,08,15.50
2009,08,24,13,09,15.60
2009,08,24,13,10,15.60
2009,08,24,13,11,15.70
2009,08,24,13,12,15.80
2009,08,24,13,13,15.80
2009,08,24,13,14,15.90
2009,08,24,13,15,15.90
2009,08,24,13,16,15.80
2009,08,24,13,17,15.70
2009,08,24,13,18,15.60
2009,08,24,13,19,15.60
2009,08,24,13,20,15.60
2009,08,24,13,21,15.60
2009,08,24,13,22,15.60
2009,08,24,13,23,15.60
2009,08,24,13,24,15.60
2009,08,24,13,25,15.60
2009,08,24,13,26,15.60
2009,08,24,13,27,15.60
2009,08,24,13,28,15.50
2009,08,24,13,29,15.40
2009,08,24,13,30,15.20
2009,08,24,13,31,15.20
2009,08,24,13,32,15.00
2009,08,24,13,33,14.90
2009,08,24,13,34,14.90
2009,08,24,13,35,15.00
2009,08,24,13,36,15.00
2009,08,24,13,37,15.10
2009,08,24,13,38,15.20
2009,08,24,13,39,15.30
2009,08,24,13,40,15.20
2009,08,24,13,41,15.10
2009,08,24,13,42,15.00
2009,08,24,13,43,15.00
2009,08,24,13,44,15.00
2009,08,24,13,45,15.00
2009,08,24,13,46,14.90
2009,08,24,13,47,14.90
2009,08,24,13,48,14.90
2009,08,24,13,49,14.80
2009,08,24,13,50,14.80
2009,08,24,13,51,14.80
2009,08,24,13,52,14.80
2009,08,24,13,53,14.80
2009,08,24,13,54,14.90
2009,08,24,13,55,15.00
2009,08,24,13,56,15.10
2009,08,24,13,57,15.20
2009,08,24,13,58,15.20
2009,08,24,13,59,15.30
2009,08,24,14,00,15.40
2009,08,24,14,01,15.50
2009,08,24,14,02,15.60
2009,08,24,14,03,15.70
2009,08,24,14,04,15.60
2009,08,24,14,05,15.60
2009,08,24,14,06,15.50
2009,08,24,14,07,15.50
2009,08,24,14,08,15.50
2009,08,24,14,09,15.60
2009,08,24,14,10,15.70
2009,08,24,14,11,15.80
2009,08,24,14,12,15.80
2009,08,24,14,13,15.90
2009,08,24,14,14,15.90
2009,08,24,14,15,15.70
2009,08,24,14,16,15.60
2009,08,24,14,17,15.60
2009,08,24,14,18,15.50
2009,08,24,14,19,15.50
2009,08,24,14,20,15.50
2009,08,24,14,21,15.70
2009,08,24,14,22,15.80
2009,08,24,14,23,15.80
2009,08,24,14,24,15.80
2009,08,24,14,25,15.90
2009,08,24,14,26,16.00
2009,08,24,14,27,15.90
2009,08,24,14,28,15.80
2009,08,24,14,29,15.90
2009,08,24,14,30,15.90
2009,08,24,14,31,16.00
2009,08,24,14,32,16.10
2009,08,24,14,33,16.00
2009,08,24,14,34,15.90
2009,08,24,14,35,15.80
2009,08,24,14,36,15.80
2009,08,24,14,37,15.80
2009,08,24,14,38,15.90
2009,08,24,14,39,15.90
2009,08,24,14,40,16.00
2009,08,24,14,41,16.10
2009,08,24,14,42,16.20
2009,08,24,14,43,16.30
2009,08,24,14,44,16.40
2009,08,24,14,45,16.60
2009,08,24,14,46,16.70
2009,08,24,14,47,16.90
2009,08,24,14,48,17.00
2009,08,24,14,49,17.10
2009,08,24,14,50,17.20
2009,08,24,14,51,17.10
2009,08,24,14,52,17.00
2009,08,24,14,53,16.90
2009,08,24,14,54,16.70
2009,08,24,14,55,16.50
2009,08,24,14,56,16.40
2009,08,24,14,57,16.40
2009,08,24,14,58,16.40
2009,08,24,14,59,16.40
2009,08,24,15,00,16.50
2009,08,24,15,01,16.60
2009,08,24,15,02,16.70
2009,08,24,15,03,16.70
2009,08,24,15,04,16.80
2009,08,24,15,05,16.80
2009,08,24,15,06,16.90
2009,08,24,15,07,16.90
2009,08,24,15,08,16.80
2009,08,24,15,09,16.80
2009,08,24,15,10,16.80
2009,08,24,15,11,16.90
2009,08,24,15,12,16.90
2009,08,24,15,13,16.90
2009,08,24,15,14,16.90
2009,08,24,15,15,16.90
2009,08,24,15,16,17.00
2009,08,24,15,17,17.00
2009,08,24,15,18,17.00
2009,08,24,15,19,17.00
2009,08,24,15,20,17.00
2009,08,24,15,21,17.10
2009,08,24,15,22,17.10
2009,08,24,15,23,17.20
2009,08,24,15,24,17.10
2009,08,24,15,25,17.10
2009,08,24,15,26,17.20
2009,08,24,15,27,17.20
2009,08,24,15,28,17.30
2009,08,24,15,29,17.30
2009,08,24,15,30,17.30
2009,08,24,15,31,17.30
2009,08,24,15,32,17.30
2009,08,24,15,33,17.30
2009,08,24,15,34,17.30
2009,08,24,15,35,17.30
2009,08,24,15,36,17.30
2009,08,24,15,37,17.30
2009,08,24,15,38,17.30
2009,08,24,15,39,17.30
2009,08,24,15,40,17.30
2009,08,24,15,41,17.40
2009,08,24,15,42,17.40
2009,08,24,15,43,17.40
2009,08,24,15,44,17.40
2009,08,24,15,45,17.50
2009,08,24,15,46,17.40
2009,08,24,15,47,17.50
2009,08,24,15,48,17.60
2009,08,24,15,49,17.60
2009,08,24,15,50,17.50
2009,08,24,15,51,17.50
2009,08,24,15,52,17.50
2009,08,24,15,53,17.50
2009,08,24,15,54,17.50
2009,08,24,15,55,17.60
2009,08,24,15,56,17.60
2009,08,24,15,57,17.50
2009,08,24,15,58,17.50
2009,08,24,15,59,17.50
2009,08,24,16,00,17.50
2009,08,24,16,01,17.30
2009,08,24,16,02,17.30
2009,08,24,16,03,17.20
2009,08,24,16,04,17.00
2009,08,24,16,05,16.90
2009,08,24,16,06,16.80
2009,08,24,16,07,16.80
2009,08,24,16,08,16.80
2009,08,24,16,09,16.80
2009,08,24,16,10,16.80
2009,08,24,16,11,16.80
2009,08,24,16,12,16.90
2009,08,24,16,13,16.90
2009,08,24,16,14,16.90
2009,08,24,16,15,16.90
2009,08,24,16,16,17.00
2009,08,24,16,17,17.10
2009,08,24,16,18,17.10
2009,08,24,16,19,17.10
2009,08,24,16,20,17.10
2009,08,24,16,21,17.20
2009,08,24,16,22,17.20
2009,08,24,16,23,17.30
2009,08,24,16,24,17.50
2009,08,24,16,25,17.50
2009,08,24,16,26,17.60
2009,08,24,16,27,17.70
2009,08,24,16,28,17.80
2009,08,24,16,29,17.90
2009,08,24,16,30,17.90
2009,08,24,16,31,17.90
2009,08,24,16,32,17.90
2009,08,24,16,33,17.90
2009,08,24,16,34,17.80
2009,08,24,16,35,17.70
2009,08,24,16,36,17.60
2009,08,24,16,37,17.60
2009,08,24,16,38,17.50
2009,08,24,16,39,17.50
2009,08,24,16,40,17.60
2009,08,24,16,41,17.70
2009,08,24,16,42,17.70
2009,08,24,16,43,17.70
2009,08,24,16,44,17.70
2009,08,24,16,45,17.60
2009,08,24,16,46,17.60
2009,08,24,16,47,17.70
2009,08,24,16,48,17.70
2009,08,24,16,49,17.70
2009,08,24,16,50,17.80
2009,08,24,16,51,17.80
2009,08,24,16,52,17.80
2009,08,24,16,53,17.80
2009,08,24,16,54,17.70
2009,08,24,16,55,17.60
2009,08,24,16,56,17.60
2009,08,24,16,57,17.60
2009,08,24,16,58,17.50
2009,08,24,16,59,17.50
2009,08,24,17,00,17.40
2009,08,24,17,01,17.40
2009,08,24,17,02,17.30
2009,08,24,17,03,17.30
2009,08,24,17,04,17.30
2009,08,24,17,05,17.30
2009,08,24,17,06,17.40
2009,08,24,17,07,17.50
2009,08,24,17,08,17.60
2009,08,24,17,09,17.70
2009,08,24,17,10,17.80
2009,08,24,17,11,17.80
2009,08,24,17,12,17.80
2009,08,24,17,13,17.80
2009,08,24,17,14,17.90
2009,08,24,17,15,17.90
2009,08,24,17,16,17.90
2009,08,24,17,17,17.90
2009,08,24,17,18,17.90
2009,08,24,17,19,17.90
2009,08,24,17,20,18.00
2009,08,24,17,21,18.00
2009,08,24,17,22,17.90
2009,08,24,17,23,17.90
2009,08,24,17,24,17.90
2009,08,24,17,25,17.90
2009,08,24,17,26,17.90
2009,08,24,17,27,18.00
2009,08,24,17,28,18.10
2009,08,24,17,29,18.10
2009,08,24,17,30,18.10
2009,08,24,17,31,18.20